Location: Newark
(8.3333°N, 39.1667°E)
Time: 11:36:09
(UTC+00:00)

N. Korean satellite - Visible Passes

Search period start: 22 July 2019 00:00
Search period end: 01 August 2019 00:00
Orbit: 456 x 508 km, 97.2° (Epoch: 21 July)

Date Brightness Start Highest point End Pass type
(mag) Time Alt. Az. Time Alt. Az. Time Alt. Az.
22 Jul 9.7 02:18:21 10° ENE 02:20:17 14° E 02:22:11 10° SE visible
25 Jul 9.0 02:35:11 10° NE 02:38:19 26° E 02:41:25 10° SSE visible
26 Jul 10.0 02:12:28 10° E 02:13:14 10° E 02:13:59 10° ESE visible
29 Jul 9.4 02:28:28 10° NE 02:31:15 20° E 02:34:01 10° SSE visible
